• In Belgien
  • Länderverzeichnis
  • Für 7 Tage
  • Wassertemperatur
  • Satellitenkarten
  • Wetterkarte
  • Widgets
  • user-avatar
    Anmelden

    Stündliche Wetter Satif

    Heute, 25 September, Montag

    Zeit Temperatur Niederschläge Wind Luftdruck Luftfeuchtigkeit
    00:00 +18°C° 0 mm 1 m/S 675 mmHg 73%
    01:00 +18°C° 0 mm 1 m/S 675 mmHg 72%
    02:00 +16°C° 0 mm 1 m/S 675 mmHg 72%
    03:00 +16°C° 0 mm 1 m/S 674 mmHg 72%
    04:00 +16°C° 0 mm 1 m/S 674 mmHg 70%
    05:00 +16°C° 0 mm 1 m/S 674 mmHg 69%
    06:00 +16°C° 0 mm 1 m/S 674 mmHg 67%
    07:00 +16°C° 0 mm 0 m/S 675 mmHg 56%
    08:00 +18°C° 0 mm 0 m/S 675 mmHg 45%
    09:00 +20°C° 0 mm 0 m/S 676 mmHg 34%
    10:00 +23°C° 0 mm 1 m/S 676 mmHg 29%
    11:00 +24°C° 0 mm 1 m/S 676 mmHg 25%
    12:00 +25°C° 0 mm 1 m/S 677 mmHg 21%
    13:00 +25°C° 0 mm 1 m/S 676 mmHg 21%
    14:00 +26°C° 0 mm 2 m/S 676 mmHg 21%
    15:00 +26°C° 0 mm 2 m/S 676 mmHg 20%
    16:00 +25°C° 0 mm 2 m/S 676 mmHg 24%
    17:00 +24°C° 0 mm 2 m/S 675 mmHg 28%
    18:00 +23°C° 0 mm 2 m/S 675 mmHg 32%
    19:00 +21°C° 0 mm 2 m/S 675 mmHg 35%
    20:00 +21°C° 0 mm 1 m/S 675 mmHg 38%
    21:00 +21°C° 0 mm 1 m/S 675 mmHg 42%
    22:00 +20°C° 0 mm 1 m/S 675 mmHg 43%
    23:00 +20°C° 0 mm 1 m/S 675 mmHg 44%

    Morgen, 26 September, Dienstag

    Zeit Temperatur Niederschläge Wind Luftdruck Luftfeuchtigkeit
    00:00 +19°C° 0 mm 1 m/S 674 mmHg 45%
    01:00 +19°C° 0 mm 1 m/S 674 mmHg 46%
    02:00 +19°C° 0 mm 1 m/S 674 mmHg 46%
    03:00 +16°C° 0 mm 0 m/S 673 mmHg 47%
    04:00 +16°C° 0 mm 0 m/S 673 mmHg 47%
    05:00 +16°C° 0 mm 0 m/S 673 mmHg 46%
    06:00 +16°C° 0 mm 0 m/S 674 mmHg 46%
    07:00 +20°C° 0 mm 1 m/S 674 mmHg 41%
    08:00 +22°C° 0 mm 1 m/S 675 mmHg 35%
    09:00 +24°C° 0 mm 2 m/S 676 mmHg 29%
    10:00 +24°C° 0 mm 2 m/S 676 mmHg 28%
    11:00 +25°C° 0 mm 2 m/S 676 mmHg 26%
    12:00 +26°C° 0 mm 2 m/S 676 mmHg 24%
    13:00 +26°C° 0 mm 3 m/S 676 mmHg 25%
    14:00 +26°C° 0 mm 3 m/S 675 mmHg 25%
    15:00 +26°C° 0 mm 3 m/S 675 mmHg 26%
    16:00 +25°C° 0 mm 2 m/S 675 mmHg 30%
    17:00 +24°C° 0 mm 2 m/S 675 mmHg 34%
    18:00 +23°C° 0 mm 2 m/S 675 mmHg 38%
    19:00 +21°C° 0 mm 2 m/S 675 mmHg 42%
    20:00 +21°C° 0 mm 1 m/S 675 mmHg 45%
    21:00 +20°C° 0 mm 1 m/S 675 mmHg 48%
    22:00 +20°C° 0 mm 1 m/S 675 mmHg 50%
    23:00 +19°C° 0 mm 1 m/S 675 mmHg 52%

    übermorgen, 27 September, Mittwoch

    Zeit Temperatur Niederschläge Wind Luftdruck Luftfeuchtigkeit
    00:00 +19°C° 0 mm 1 m/S 675 mmHg 53%
    01:00 +19°C° 0 mm 1 m/S 674 mmHg 54%
    02:00 +18°C° 0 mm 1 m/S 674 mmHg 56%
    03:00 +18°C° 0 mm 1 m/S 674 mmHg 57%
    04:00 +18°C° 0 mm 1 m/S 674 mmHg 58%
    05:00 +18°C° 0 mm 1 m/S 674 mmHg 59%
    06:00 +16°C° 0 mm 1 m/S 674 mmHg 61%
    07:00 +19°C° 0 mm 1 m/S 675 mmHg 57%
    08:00 +20°C° 0 mm 1 m/S 675 mmHg 52%
    09:00 +21°C° 0 mm 1 m/S 676 mmHg 48%
    10:00 +21°C° 0 mm 2 m/S 676 mmHg 45%
    11:00 +23°C° 0 mm 2 m/S 676 mmHg 43%
    12:00 +25°C° 0 mm 2 m/S 677 mmHg 40%
    13:00 +25°C° 0 mm 3 m/S 676 mmHg 41%
    14:00 +25°C° 0 mm 3 m/S 676 mmHg 41%
    15:00 +25°C° 0 mm 3 m/S 676 mmHg 42%
    16:00 +24°C° 0 mm 3 m/S 676 mmHg 48%
    17:00 +22°C° 0 mm 3 m/S 676 mmHg 54%
    18:00 +21°C° 0 mm 3 m/S 676 mmHg 60%
    19:00 +20°C° 0 mm 3 m/S 676 mmHg 66%
    20:00 +19°C° 0 mm 2 m/S 676 mmHg 71%
    21:00 +18°C° 0 mm 2 m/S 676 mmHg 76%
    22:00 +18°C° 0 mm 2 m/S 676 mmHg 78%
    23:00 +18°C° 0 mm 2 m/S 676 mmHg 79%

    28 September, Donnerstag

    Zeit Temperatur Niederschläge Wind Luftdruck Luftfeuchtigkeit
    00:00 +18°C° 0 mm 1 m/S 676 mmHg 81%
    01:00 +18°C° 0 mm 1 m/S 676 mmHg 82%
    02:00 +18°C° 0 mm 1 m/S 676 mmHg 84%
    03:00 +16°C° 0 mm 1 m/S 675 mmHg 85%
    04:00 +16°C° 0 mm 1 m/S 675 mmHg 86%
    05:00 +16°C° 0 mm 1 m/S 676 mmHg 87%
    06:00 +15°C° 0 mm 1 m/S 676 mmHg 88%
    07:00 +16°C° 0 mm 1 m/S 676 mmHg 82%
    08:00 +19°C° 0 mm 1 m/S 677 mmHg 75%
    09:00 +19°C° 0 mm 2 m/S 677 mmHg 69%
    10:00 +20°C° 0 mm 2 m/S 677 mmHg 62%
    11:00 +21°C° 0 mm 2 m/S 677 mmHg 55%
    12:00 +23°C° 0 mm 2 m/S 677 mmHg 48%
    13:00 +23°C° 0 mm 2 m/S 677 mmHg 46%
    14:00 +23°C° 0 mm 2 m/S 677 mmHg 45%
    15:00 +24°C° 0 mm 3 m/S 677 mmHg 43%
    16:00 +22°C° 0 mm 3 m/S 677 mmHg 49%
    17:00 +21°C° 0 mm 3 m/S 676 mmHg 55%
    18:00 +20°C° 0 mm 3 m/S 676 mmHg 60%
    19:00 +19°C° 0 mm 3 m/S 677 mmHg 65%
    20:00 +18°C° 0 mm 2 m/S 677 mmHg 70%
    21:00 +18°C° 0 mm 2 m/S 677 mmHg 75%
    22:00 +17°C° 0 mm 2 m/S 676 mmHg 77%
    23:00 +18°C° 0 mm 1 m/S 676 mmHg 79%

    29 September, Freitag

    Zeit Temperatur Niederschläge Wind Luftdruck Luftfeuchtigkeit
    00:00 +18°C° 0 mm 1 m/S 676 mmHg 80%
    01:00 +16°C° 0 mm 1 m/S 676 mmHg 82%
    02:00 +16°C° 0 mm 1 m/S 675 mmHg 83%
    03:00 +16°C° 0 mm 1 m/S 675 mmHg 85%
    04:00 +15°C° 0 mm 1 m/S 675 mmHg 86%
    05:00 +15°C° 0 mm 1 m/S 675 mmHg 87%
    06:00 +15°C° 0 mm 1 m/S 675 mmHg 87%
    07:00 +16°C° 0 mm 1 m/S 676 mmHg 80%
    08:00 +19°C° 0 mm 1 m/S 676 mmHg 72%
    09:00 +20°C° 0 mm 1 m/S 677 mmHg 64%
    10:00 +21°C° 0 mm 1 m/S 677 mmHg 57%
    11:00 +21°C° 0 mm 2 m/S 677 mmHg 50%
    12:00 +24°C° 0 mm 2 m/S 677 mmHg 42%
    13:00 +24°C° 0 mm 2 m/S 676 mmHg 41%
    14:00 +24°C° 0 mm 3 m/S 676 mmHg 41%
    15:00 +24°C° 0 mm 3 m/S 676 mmHg 40%
    16:00 +22°C° 0 mm 3 m/S 676 mmHg 46%
    17:00 +21°C° 0 mm 3 m/S 675 mmHg 52%
    18:00 +20°C° 0 mm 3 m/S 675 mmHg 58%
    19:00 +19°C° 0 mm 2 m/S 675 mmHg 63%
    20:00 +19°C° 0 mm 2 m/S 675 mmHg 67%
    21:00 +19°C° 0 mm 1 m/S 675 mmHg 72%
    22:00 +19°C° 0 mm 1 m/S 675 mmHg 74%
    23:00 +18°C° 0 mm 1 m/S 675 mmHg 76%

    30 September, Samstag

    Zeit Temperatur Niederschläge Wind Luftdruck Luftfeuchtigkeit
    00:00 +18°C° 0 mm 1 m/S 675 mmHg 78%
    01:00 +16°C° 0 mm 1 m/S 674 mmHg 80%
    02:00 +16°C° 0 mm 1 m/S 674 mmHg 82%
    03:00 +16°C° 0 mm 1 m/S 674 mmHg 83%
    04:00 +15°C° 0 mm 0 m/S 674 mmHg 83%
    05:00 +14°C° 0 mm 0 m/S 674 mmHg 84%
    06:00 +14°C° 0 mm 0 m/S 674 mmHg 84%
    07:00 +18°C° 0 mm 1 m/S 675 mmHg 75%
    08:00 +19°C° 0 mm 1 m/S 675 mmHg 66%
    09:00 +20°C° 0 mm 1 m/S 676 mmHg 57%
    10:00 +21°C° 0 mm 1 m/S 676 mmHg 50%
    11:00 +21°C° 0 mm 2 m/S 676 mmHg 43%
    12:00 +23°C° 0 mm 2 m/S 676 mmHg 36%
    13:00 +24°C° 0 mm 2 m/S 675 mmHg 36%
    14:00 +24°C° 0 mm 2 m/S 675 mmHg 35%
    15:00 +24°C° 0 mm 3 m/S 675 mmHg 35%
    16:00 +22°C° 0 mm 3 m/S 675 mmHg 39%
    17:00 +21°C° 0 mm 3 m/S 675 mmHg 44%
    18:00 +20°C° 0 mm 3 m/S 675 mmHg 48%
    19:00 +19°C° 0 mm 2 m/S 675 mmHg 53%
    20:00 +19°C° 0 mm 2 m/S 675 mmHg 57%
    21:00 +19°C° 0 mm 1 m/S 675 mmHg 61%
    22:00 +19°C° 0 mm 1 m/S 675 mmHg 62%
    23:00 +18°C° 0 mm 1 m/S 674 mmHg 63%
    Mehr zeigen